Sabine Lake Weather Center

Moon Phase Calendar



Sabine Lake Water Level
Online Cameras

 


      

Current Conditions in Lakeview
4/20/2024 7:48:36 AM

73°F
Feels Like 75
Clouds
Humidity
94%
Pressure
30.03"
Wind
4.6 mph (NE)
Dew Point
71°F
UV Index
0/10 (Low)
Visibility
6 mi

Hourly Forecast

Date & Time Sat, Apr 20
7:00 AM
Sat, Apr 20
8:00 AM
Sat, Apr 20
9:00 AM
Sat, Apr 20
10:00 AM
Sat, Apr 20
11:00 AM
Sat, Apr 20
12:00 PM
Sat, Apr 20
1:00 PM
Sat, Apr 20
2:00 PM
Sat, Apr 20
3:00 PM
Sat, Apr 20
4:00 PM
Sat, Apr 20
5:00 PM
Sat, Apr 20
6:00 PM
Sat, Apr 20
7:00 PM
Sat, Apr 20
8:00 PM
Sat, Apr 20
9:00 PM
Sat, Apr 20
10:00 PM
Sat, Apr 20
11:00 PM
Sun, Apr 21
12:00 AM
Sun, Apr 21
1:00 AM
Sun, Apr 21
2:00 AM
Sun, Apr 21
3:00 AM
Sun, Apr 21
4:00 AM
Sun, Apr 21
5:00 AM
Sun, Apr 21
6:00 AM
Sun, Apr 21
7:00 AM
Sun, Apr 21
8:00 AM
Sun, Apr 21
9:00 AM
Sun, Apr 21
10:00 AM
Sun, Apr 21
11:00 AM
Sun, Apr 21
12:00 PM
Sun, Apr 21
1:00 PM
Sun, Apr 21
2:00 PM
Sun, Apr 21
3:00 PM
Sun, Apr 21
4:00 PM
Sun, Apr 21
5:00 PM
Sun, Apr 21
6:00 PM
Sun, Apr 21
7:00 PM
Sun, Apr 21
8:00 PM
Sun, Apr 21
9:00 PM
Sun, Apr 21
10:00 PM
Sun, Apr 21
11:00 PM
Mon, Apr 22
12:00 AM
Mon, Apr 22
1:00 AM
Mon, Apr 22
2:00 AM
Mon, Apr 22
3:00 AM
Mon, Apr 22
4:00 AM
Mon, Apr 22
5:00 AM
Mon, Apr 22
6:00 AM
Condition
Clouds

Clouds

Clouds

Clouds

Clouds

Clouds

Clouds

Clouds

Clouds

Clouds

Clouds

Clouds

Clouds

Clouds

Clouds

Rain

Clouds

Clouds

Clouds

Clouds

Clouds

Clouds

Clouds

Clouds

Clouds

Clouds

Clouds

Clouds

Rain

Clouds

Clouds

Clouds

Clouds

Clouds

Clouds

Clouds

Clouds

Clouds

Clouds

Clouds

Clouds

Clouds

Clouds

Clouds

Clear

Clouds

Clouds

Clear
Temperature 73°F73°F74°F75°F77°F79°F82°F80°F78°F80°F80°F78°F75°F72°F70°F69°F66°F66°F63°F61°F59°F59°F59°F59°F58°F57°F56°F56°F57°F57°F62°F66°F66°F66°F66°F66°F63°F61°F60°F58°F57°F55°F54°F54°F53°F53°F52°F51°F
Feels Like 74°F75°F75°F76°F78°F79°F84°F83°F79°F82°F82°F79°F76°F73°F71°F69°F67°F66°F64°F61°F59°F59°F59°F58°F57°F57°F56°F56°F56°F57°F61°F65°F65°F65°F65°F65°F62°F60°F58°F57°F55°F54°F53°F52°F52°F51°F50°F50°F
Cloudiness 94%100%100%100%99%100%100%100%100%97%98%98%98%100%100%100%100%100%100%100%100%100%100%99%94%90%95%97%97%98%98%91%90%92%93%92%91%95%82%67%55%58%62%23%9%14%11%9%
Visibility 6 mi6 mi6 mi6 mi6 mi6 mi6 mi6 mi6 mi6 mi6 mi6 mi6 mi6 mi6 mi6 mi6 mi6 mi6 mi6 mi6 mi6 mi6 mi6 mi6 mi6 mi6 mi6 mi6 mi6 mi6 mi6 mi6 mi6 mi6 mi6 mi6 mi6 mi6 mi6 mi6 mi6 mi6 mi6 mi6 mi6 mi6 mi6 mi
Precipitation 0%0%0%0%0%0%0%8%0%2%5%4%2%2%0%20%0%0%0%0%0%0%0%0%0%0%0%0%20%0%0%0%0%0%0%0%0%0%0%0%0%0%0%0%0%0%0%0%
Humidity 95%94%91%85%77%69%60%62%70%61%61%66%78%88%91%91%92%90%92%90%88%86%87%87%90%88%86%85%86%83%72%64%63%61%59%60%64%66%68%71%70%70%72%74%74%74%75%76%
Dew Point 71°F71°F71°F70°F69°F68°F66°F66°F67°F66°F65°F66°F68°F68°F68°F66°F63°F62°F61°F58°F56°F55°F55°F55°F55°F54°F52°F52°F52°F52°F53°F54°F53°F52°F52°F51°F51°F50°F49°F49°F47°F46°F46°F45°F45°F44°F44°F44°F
Pressure 30.03"30.03"30.03"30.03"30.03"30.03"30.03"30"29.97"29.97"29.94"29.94"29.94"29.97"29.97"30"30"30.03"30.06"30.03"30.03"30.03"30.03"30.06"30.09"30.12"30.15"30.15"30.18"30.15"30.15"30.12"30.12"30.12"30.12"30.12"30.15"30.15"30.18"30.21"30.21"30.21"30.21"30.18"30.18"30.18"30.18"30.18"
Wind Speed 3.1 mph4.2 mph5.1 mph6.1 mph8.2 mph8.8 mph8.8 mph9.2 mph12.9 mph10.3 mph10 mph8.8 mph7.9 mph3.8 mph8.3 mph12.4 mph11.2 mph9.2 mph14.2 mph14.6 mph14.4 mph10.8 mph9 mph11.6 mph13.8 mph15.6 mph15.3 mph14.1 mph14.1 mph15 mph14.5 mph15.6 mph15.6 mph14.6 mph14.2 mph14.4 mph13.9 mph12.7 mph9.9 mph10.5 mph11.2 mph10 mph9.7 mph10 mph10.2 mph9.5 mph9.6 mph9.6 mph
Wind
Direction
112°
ESE
87°
E
96°
E
114°
ESE
119°
ESE
154°
SSE
162°
SSE
164°
SSE
154°
SSE
153°
SSE
155°
SSE
125°
SE
130°
SE
72°
ENE
71°
ENE
46°
NE
47°
NE
25°
NNE

N
25°
NNE
29°
NNE
34°
NE
28°
NNE
15°
NNE
10°
N
13°
NNE
19°
NNE
25°
NNE
24°
NNE
31°
NNE
31°
NNE
26°
NNE
25°
NNE
26°
NNE
26°
NNE
26°
NNE
24°
NNE
25°
NNE
30°
NNE
31°
NNE
31°
NNE
40°
NE
41°
NE
39°
NE
41°
NE
43°
NE
42°
NE
44°
NE

Daily Forecast

Date High Low Precip. Humidity
Today
Apr 20

Rain
82 °F
66 °F
20%
60%
Sunday
Apr 21

Rain
66 °F
56 °F
20%
72%
Monday
Apr 22

Clouds
72 °F
51 °F
0%
36%
Tuesday
Apr 23

Clear
75 °F
58 °F
0%
53%
Wednesday
Apr 24

Clouds
77 °F
66 °F
0%
66%
Thursday
Apr 25

Rain
79 °F
68 °F
27%
65%
Friday
Apr 26

Clouds
80 °F
71 °F
0%
69%
Saturday
Apr 27

Rain
83 °F
73 °F
20%
65%
Sunday
Apr 28

Clouds
82 °F
75 °F
0%
69%
Monday
Apr 29

Rain
83 °F
75 °F
20%
68%
Tuesday
Apr 30

Rain
84 °F
74 °F
69%
66%
Wednesday
May 1

Clouds
85 °F
74 °F
0%
63%
Thursday
May 2

Rain
83 °F
74 °F
22%
65%
Friday
May 3

Rain
81 °F
73 °F
63%
65%
Saturday
May 4

Rain
85 °F
68 °F
53%
51%
Sunday
May 5

Clouds
84 °F
69 °F
0%
56%

Temperature 8-14 Day Outlook



Precipitation 8-14 Day Outlook




Quick Links
Sabine Lake News
Sabine Lake Photos
Sabine Lake Videos




About Us
Contact Us
Site Map
Search Site
Advertise With Us
   
Sabine.USLakes.info
THE SABINE LAKE WEBSITE

Copyright 2024, Lakes Online
Privacy    |    Legal